sat.trackr.live / text

‹ back to catalog

STARLINK-5176

NORAD 54053 · 2022-136C

PAYLOAD ACTIVE UNKNOWN

§ Identity

Operator
Country
US
Launch date
2022-10-20
Launch site
AFETR
Launch vehicle
Mass (kg)
RCS (m²)

Purposes: comms

External: N2YO · Heavens-Above · Gunter

§ Orbital elements

Epoch: 2026-09-20T05:36:25.180128Z

Period
94.01 min
Inclination
53.1591°
Eccentricity
0.0001419
Mean motion
15.31700369 rev/d
Perigee alt
469.8 km
Apogee alt
471.7 km
Semi-major
6,848.9 km
B*
1.9827e-5
RAAN
176.0979°
Arg perigee
91.3533°
Mean anomaly
268.7631°
Rev number
21,641

§ Raw data

STARLINK-51761 54053U 22136C   26263.23362477  .00000250  00000+0  19827-4 0  99912 54053  53.1591 176.0979 0001419  91.3533 268.7631 15.31700369216413

JSON: /api/v1/satellites/54053 · /tle

For live sub-satellite position, see the globe view (requires WebGL).

§ Visibility from observer

Set your observer location to see the next 7 days of passes ≥ 10°. The values pass through the URL so the page stays shareable.

No JS? Fill the form by hand. The geolocation button needs JavaScript.